Weather History for Boonville, MO

Change the Weather History Date:

Tuesday, January 8, 2013

  Actual Average Record
Temperature  
Mean Temperature 40 °F -  
Max Temperature 53 °F 32 °F 75 °F (1965)
Min Temperature 27 °F 14 °F -11 °F (1968)
Degree Days  
Heating Degree Days 25    
Moisture  
Dew Point 27 °F    
Average Humidity 60    
Maximum Humidity 81    
Minimum Humidity 34    
Precipitation  
Precipitation 0.00 in - - ()
Sea Level Pressure  
Sea Level Pressure 30.08 in    
Wind  
Wind Speed 7 mph (South)    
Max Wind Speed 14 mph    
Max Gust Speed 20 mph    
Visibility 10 miles    
Events      
Averages and records for this station are not official NWS values.
T = Trace of Precipitation, MM = Missing Value Source: NWS Daily Summary

Daily Weather History Graph

Daily Weather History Graph

Search for Another Location

Airport:

Trip Planner

Search our weather history database for the weather conditions in past years. The results will help you decide how hot, cold, wet, or windy it might be!

Date:

Astronomy

Jan. 08, 2013 Rise Set
Actual Time 7:29 AM CST 5:05 PM CST
Civil Twilight 6:59 AM CST 5:35 PM CST
Nautical Twilight 6:26 AM CST 6:08 PM CST
Astronomical Twilight 5:54 AM CST 6:40 PM CST
Moon 4:03 AM CST (1/8) 2:08 PM CST (1/8)
Length of Visible Light 10h 35m
Length of Day
9h 36m
Waning Crescent, 13% of the Moon is Illuminated
Jan 8
Waning Crescent
Jan 11
New
Jan 18
First Quarter
Jan 26
Full
Feb 3
Last Quarter

Hourly Weather History & Observations

Time (CST) Temp. Windchill Dew Point Humidity Pressure Visibility Wind Dir Wind Speed Gust Speed Precip Events Conditions
12:15 AM 34.0 °F 29.8 °F 23.9 °F 67% 30.10 in 10.0 mi SSE 4.6 mph - N/A   Clear
12:35 AM 32.7 °F 26.4 °F 23.9 °F 70% 30.09 in 10.0 mi SSE 6.9 mph - N/A   Clear
12:55 AM 32.0 °F 25.6 °F 23.9 °F 72% 30.09 in 10.0 mi SSE 6.9 mph - N/A   Clear
1:15 AM 31.8 °F 25.4 °F 24.1 °F 73% 30.09 in 10.0 mi SSE 6.9 mph - N/A   Clear
1:35 AM 31.5 °F 28.1 °F 23.9 °F 74% 30.09 in 10.0 mi SE 3.5 mph - N/A   Clear
1:55 AM 32.0 °F - 23.9 °F 72% 30.10 in 10.0 mi Calm Calm - N/A   Clear
2:15 AM 31.8 °F 27.3 °F 23.9 °F 73% 30.10 in 10.0 mi SSE 4.6 mph - N/A   Clear
2:35 AM 30.0 °F 26.5 °F 23.2 °F 76% 30.11 in 10.0 mi SE 3.5 mph - N/A   Clear
2:55 AM 29.5 °F 23.4 °F 23.4 °F 78% 30.11 in 10.0 mi SE 5.8 mph - N/A   Clear
3:15 AM 29.5 °F - 23.5 °F 79% 30.11 in 10.0 mi Calm Calm - N/A   Clear
3:35 AM 29.7 °F 22.8 °F 23.0 °F 76% 30.11 in 10.0 mi SSE 6.9 mph - N/A   Clear
3:55 AM 27.5 °F 22.2 °F 22.3 °F 81% 30.10 in 10.0 mi SSE 4.6 mph - N/A   Clear
4:15 AM 28.8 °F 22.6 °F 23.0 °F 79% 30.10 in 10.0 mi SSE 5.8 mph - N/A   Clear
4:35 AM 28.4 °F 22.2 °F 22.8 °F 80% 30.10 in 10.0 mi SSE 5.8 mph - N/A   Clear
4:55 AM 28.8 °F 23.7 °F 23.4 °F 80% 30.10 in 10.0 mi SSE 4.6 mph - N/A   Clear
5:15 AM 29.5 °F 22.5 °F 23.5 °F 79% 30.09 in 10.0 mi SSE 6.9 mph - N/A   Clear
5:35 AM 29.3 °F 20.8 °F 23.5 °F 79% 30.09 in 10.0 mi SSE 9.2 mph - N/A   Clear
5:55 AM 29.8 °F 22.2 °F 23.9 °F 79% 30.10 in 10.0 mi SSE 8.1 mph - N/A   Clear
6:15 AM 30.6 °F - 23.9 °F 76% 30.10 in 10.0 mi Calm Calm - N/A   Clear
6:35 AM 30.2 °F 22.6 °F 23.9 °F 77% 30.10 in 10.0 mi SSE 8.1 mph - N/A   Clear
6:55 AM 30.6 °F 23.1 °F 23.9 °F 76% 30.10 in 10.0 mi SSE 8.1 mph - N/A   Clear
7:15 AM 30.6 °F 23.8 °F 24.1 °F 77% 30.10 in 10.0 mi SSE 6.9 mph - N/A   Clear
7:35 AM 30.2 °F 23.4 °F 23.9 °F 77% 30.11 in 10.0 mi SSE 6.9 mph - N/A   Clear
7:55 AM 30.6 °F 22.4 °F 24.3 °F 77% 30.10 in 10.0 mi SSE 9.2 mph - N/A   Clear
8:15 AM 31.6 °F 23.7 °F 24.6 °F 75% 30.11 in 10.0 mi SSE 9.2 mph - N/A   Clear
8:35 AM 32.9 °F 25.3 °F 25.2 °F 73% 30.11 in 10.0 mi SSE 9.2 mph - N/A   Clear
8:55 AM 34.0 °F 26.6 °F 25.5 °F 71% 30.11 in 10.0 mi SSE 9.2 mph - N/A   Clear
9:15 AM 34.9 °F 27.7 °F 25.5 °F 69% 30.11 in 10.0 mi SSE 9.2 mph - N/A   Clear
9:35 AM 36.7 °F 29.4 °F 25.9 °F 65% 30.11 in 10.0 mi SSE 10.4 mph - N/A   Clear
9:55 AM 38.5 °F 31.6 °F 26.1 °F 61% 30.11 in 10.0 mi SSE 10.4 mph - N/A   Clear
10:15 AM 40.6 °F 35.4 °F 26.8 °F 58% 30.11 in 10.0 mi SSE 8.1 mph - N/A   Clear
10:35 AM 42.3 °F 35.9 °F 27.7 °F 56% 30.11 in 10.0 mi South 11.5 mph - N/A   Clear
10:55 AM 43.3 °F 37.7 °F 27.5 °F 54% 30.11 in 10.0 mi South 10.4 mph - N/A   Clear
11:15 AM 44.2 °F 38.8 °F 27.3 °F 51% 30.10 in 10.0 mi South 10.4 mph - N/A   Clear
11:55 AM 46.4 °F 41.1 °F 27.9 °F 48% 30.08 in 10.0 mi South 11.5 mph - N/A   Clear
12:15 PM 47.3 °F - 28.4 °F 48% 30.08 in 10.0 mi South 12.7 mph 16.1 mph N/A   Clear
12:55 PM 49.6 °F - 28.9 °F 45% 30.06 in 10.0 mi South 13.8 mph - N/A   Clear
1:15 PM 50.5 °F - 29.3 °F 44% 30.04 in 10.0 mi South 11.5 mph - N/A   Clear
1:55 PM 52.9 °F - 28.6 °F 39% 30.03 in 10.0 mi South 13.8 mph - N/A   Clear
2:15 PM 53.4 °F - 27.1 °F 36% 30.02 in 10.0 mi South 12.7 mph - N/A   Clear
2:35 PM 53.6 °F - 27.3 °F 36% 30.02 in 10.0 mi SSE 12.7 mph 16.1 mph N/A   Clear
2:55 PM 52.5 °F - 27.3 °F 38% 30.02 in 10.0 mi South 12.7 mph - N/A   Scattered Clouds
3:15 PM 53.6 °F - 26.6 °F 35% 30.02 in 10.0 mi SSE 13.8 mph 17.3 mph N/A   Mostly Cloudy
3:35 PM 53.4 °F - 25.7 °F 34% 30.03 in 10.0 mi South 11.5 mph 19.6 mph N/A   Scattered Clouds
3:55 PM 53.1 °F - 25.5 °F 34% 30.02 in 10.0 mi SSE 10.4 mph - N/A   Scattered Clouds
4:15 PM 51.6 °F - 25.3 °F 36% 30.02 in 10.0 mi SSE 9.2 mph - N/A   Mostly Cloudy
4:35 PM 50.9 °F - 26.2 °F 38% 30.03 in 10.0 mi SSE 8.1 mph - N/A   Overcast
4:55 PM 50.0 °F - 27.0 °F 41% 30.03 in 10.0 mi SSE 6.9 mph - N/A   Overcast
5:15 PM 49.1 °F - 28.0 °F 44% 30.03 in 10.0 mi SSE 6.9 mph - N/A   Overcast
5:35 PM 49.1 °F - 27.7 °F 44% 30.03 in 10.0 mi Calm Calm - N/A   Overcast
5:55 PM 49.6 °F - 25.9 °F 40% 30.04 in 10.0 mi South 6.9 mph - N/A   Overcast
6:15 PM 50.2 °F - 24.6 °F 37% 30.04 in 10.0 mi South 5.8 mph - N/A   Overcast
6:35 PM 50.0 °F - 25.0 °F 38% 30.05 in 10.0 mi South 8.1 mph - N/A   Overcast
6:55 PM 49.5 °F - 26.8 °F 41% 30.05 in 10.0 mi South 10.4 mph - N/A   Overcast
7:15 PM 49.6 °F - 29.5 °F 46% 30.05 in 10.0 mi SSW 3.5 mph - N/A   Overcast
7:35 PM 49.8 °F - 31.3 °F 49% 30.08 in 10.0 mi SSW 4.6 mph - N/A   Overcast
7:55 PM 49.3 °F - 32.0 °F 51% 30.08 in 10.0 mi SSW 4.6 mph - N/A   Overcast
8:15 PM 48.2 °F - 32.2 °F 54% 30.08 in 10.0 mi SSW 4.6 mph - N/A   Scattered Clouds
8:35 PM 47.3 °F - 32.4 °F 56% 30.08 in 10.0 mi SSW 3.5 mph - N/A   Scattered Clouds
8:55 PM 46.8 °F - 32.9 °F 59% 30.09 in 10.0 mi South 3.5 mph - N/A   Mostly Cloudy
9:15 PM 46.4 °F 45.2 °F 33.6 °F 61% 30.10 in 10.0 mi SSW 3.5 mph - N/A   Overcast
9:35 PM 46.0 °F 43.9 °F 34.0 °F 63% 30.11 in 10.0 mi SSW 4.6 mph - N/A   Overcast
9:55 PM 46.4 °F 43.5 °F 34.0 °F 62% 30.12 in 10.0 mi SSW 5.8 mph - N/A   Overcast
10:15 PM 45.9 °F 43.6 °F 34.2 °F 64% 30.12 in 10.0 mi SSW 4.6 mph - N/A   Mostly Cloudy
10:35 PM 45.5 °F 44.2 °F 34.5 °F 65% 30.12 in 10.0 mi SW 3.5 mph - N/A   Scattered Clouds
10:55 PM 45.1 °F 42.0 °F 34.7 °F 67% 30.13 in 10.0 mi SSW 5.8 mph - N/A   Clear